sat.trackr.live / text

‹ back to catalog

STARLINK-35861

NORAD 66355 · 2025-254H

PAYLOAD ACTIVE UNKNOWN

§ Identity

Operator
Country
US
Launch date
2025-11-06
Launch site
AFWTR
Launch vehicle
Mass (kg)
RCS (m²)

Purposes: comms

External: N2YO · Heavens-Above · Gunter

§ Orbital elements

Epoch: 2026-09-20T22:21:18.310752Z

Period
93.85 min
Inclination
53.1598°
Eccentricity
0.0001151
Mean motion
15.34406743 rev/d
Perigee alt
461.9 km
Apogee alt
463.5 km
Semi-major
6,840.8 km
B*
4.8075e-4
RAAN
43.7727°
Arg perigee
50.8363°
Mean anomaly
309.2742°
Rev number
4,889

§ Raw data

STARLINK-358611 66355U 25254H   26263.93146193  .00015905  00000+0  48075-3 0  99942 66355  53.1598  43.7727 0001151  50.8363 309.2742 15.34406743 48894

JSON: /api/v1/satellites/66355 · /tle

For live sub-satellite position, see the globe view (requires WebGL).

§ Visibility from observer

Set your observer location to see the next 7 days of passes ≥ 10°. The values pass through the URL so the page stays shareable.

No JS? Fill the form by hand. The geolocation button needs JavaScript.